EHI
0 0 1 1 1 0 0 0 0 0 0 0 0 0 0 0 0 0 0 0 0 0 0 0 0 0 1 2 3 4 4 3 3 5 10 15 13 6 1 0 0 0 0
0 0 0 0 0 0 0 0 0 0 0 0 0 0 0 0 0 0 0 0 0 0 0 0 0 0 0 1 1 3 3 2 2 4 6 9 8 4 1 0 0 0 0
0 0 0 0 0 0 0 0 0 0 0 0 0 0 0 0 0 0 0 0 0 0 0 0 0 0 0 0 0 1 1 1 1 2 2 3 3 1 0 0 0 0 0
0 0 0 0 0 0 0 0 0 0 0 0 0 0 0 0 0 0 0 0 0 0 0 0 0 0 0 0 0 0 0 0 0 0 0 0 0 0 0 0 0 0 0
0 0 0 0 0 0 0 0 0 0 0 0 0 0 0 0 0 0 0 0 0 0 0 0 0 0 0 0 0 0 0 0 0 0 0 0 0 0 0 0 0 0 0
0 0 0 0 0 0 0 0 0 0 0 0 0 0 0 0 0 0 0 0 0 0 0 0 0 0 0 0 0 0 0 0 0 0 0 0 0 0 0 0 0 0 0
0 0 0 0 0 0 0 0 0 0 0 0 0 0 0 0 0 0 0 0 0 0 0 0 0 0 0 0 0 0 0 0 0 1 0 0 0 0 0 0 0 0 0
0 0 0 0 0 0 0 0 0 0 0 0 0 0 0 0 0 0 0 0 0 0 0 0 0 0 0 0 0 0 0 0 0 0 0 0 0 0 0 0 0 0 0
0 0 0 0 0 0 0 0 0 0 0 0 0 0 0 0 0 0 0 0 0 0 0 0 0 0 0 0 0 0 0 0 0 0 0 0 0 0 0 0 0 0 0
0 0 0 0 0 0 0 0 0 0 0 0 0 0 0 0 0 0 0 0 0 0 0 0 0 0 0 0 0 0 0 0 0 0 0 0 0 0 0 0 0 0 0
0 0 0 0 0 0 0 0 0 0 0 0 0 0 0 0 0 0 0 0 0 0 0 0 0 0 0 0 0 0 0 0 0 0 0 0 0 0 0 0 0 0 0
0 0 0 0 0 0 0 0 0 0 0 0 0 0 0 0 0 0 0 0 0 0 0 0 0 0 0 0 0 0 0 0 0 0 0 0 0 0 0 0 0 0 0
0 0 0 0 0 0 0 0 0 0 0 0 0 0 0 0 0 0 0 0 0 0 0 0 0 0 0 0 0 0 0 0 0 0 0 0 0 0 0 0 0 0 0
0 0 0 0 0 0 0 0 0 0 0 0 0 0 0 0 0 0 0 0 0 0 0 0 0 0 0 0 0 0 0 0 0 0 0 0 0 0 0 0 0 0 0
0 0 0 0 0 0 0 0 0 0 0 0 0 0 0 0 0 0 0 0 0 0 0 0 0 0 0 0 0 0 0 0 0 0 0 0 0 0 0 0 0 0 0
0 0 0 0 0 0 0 0 0 0 0 0 0 0 0 0 0 0 0 0 0 0 0 0 0 0 0 0 0 0 0 0 0 0 0 0 0 0 0 0 0 0 0
0 0 0 0 0 0 0 0 0 0 0 0 0 0 0 0 0 0 0 0 0 0 0 0 0 0 0 0 0 0 0 0 0 0 0 0 0 0 0 0 0 0 0
0 0 0 0 0 0 0 0 0 0 0 0 0 0 0 0 0 0 0 0 0 0 0 0 0 0 0 0 0 0 0 0 0 0 0 0 0 0 0 0 0 0 0
0 0 0 0 0 0 0 0 0 0 0 0 0 0 0 0 0 0 0 0 0 0 0 0 0 0 0 0 0 0 0 0 0 0 0 0 0 0 0 0 0 0 0
0 0 0 0 0 0 0 0 0 0 0 0 0 0 0 0 0 0 0 0 0 0 0 0 0 0 0 0 0 0 0 0 0 0 0 0 0 0 0 0 0 0 0
0 0 0 0 0 0 0 0 0 0 0 0 0 0 0 0 0 0 0 0 0 0 0 0 0 0 0 0 0 0 0 0 0 0 0 0 0 0 0 0 0 0 0
0 0 0 0 0 0 0 0 0 0 0 0 0 0 0 0 0 0 0 0 0 0 0 0 0 0 0 0 0 0 0 0 0 0 0 0 0 0 0 0 0 0 0
0 0 0 0 0 0 0 0 0 0 0 0 0 0 0 0 0 0 0 0 0 0 0 0 0 0 0 0 0 0 0 0 0 0 0 0 0 0 0 0 0 0 0
0 0 0 0 0 0 0 0 0 0 0 0 0 0 0 0 0 0 0 0 0 0 0 0 0 0 0 0 0 0 0 0 0 0 0 0 0 0 0 0 0 0 0
0 0 0 0 0 0 0 0 0 0 0 0 0 0 0 0 0 0 0 0 0 0 0 0 0 0 0 0 0 0 0 0 0 0 0 0 0 0 0 0 0 0 0
0 0 0 0 0 0 0 0 0 0 0 0 0 0 0 0 0 0 0 0 0 0 0 0 0 0 0 0 0 0 0 0 0 0 0 0 0 0 0 0 0 0 0
Wind_Speed
6 6 7 6 6 7 6 7 7 8 8 7 8 8 7 7 7 7 7 6 6 5 5 5 5 4 3 2 2 2 2 2 3 2 2 4 6 7 7 7 8 6 6
7 7 7 7 7 8 9 8 9 8 8 8 8 8 9 9 8 8 9 9 8 7 7 6 6 5 5 3 2 2 2 2 2 3 2 4 5 7 7 7 7 7 7
9 8 8 8 8 8 9 9 9 9 9 9 8 9 9 10 9 8 9 9 9 8 8 7 7 7 6 4 4 4 2 2 2 2 3 3 4 6 7 6 7 6 7
9 10 9 8 9 9 9 9 9 9 9 9 9 9 9 9 10 10 9 9 9 9 8 8 7 7 7 7 6 5 4 3 3 3 3 3 5 7 7 7 6 5 5
10 11 10 9 9 9 9 10 10 10 12 10 10 9 9 10 11 11 9 10 9 9 9 8 8 9 9 8 7 6 6 4 4 4 4 4 4 7 8 7 7 6 5
9 11 10 10 10 10 10 10 10 10 9 9 10 11 11 12 12 9 7 8 7 9 8 8 9 9 10 11 9 8 7 6 5 5 4 5 6 6 6 7 8 7 5
10 11 10 10 11 11 13 12 12 11 10 10 10 10 11 11 13 11 10 7 7 7 8 8 9 11 11 10 11 11 10 10 9 6 5 5 5 5 7 9 9 9 5
11 11 10 10 12 12 12 12 11 10 9 10 11 11 10 12 13 12 11 8 8 8 8 9 9 8 8 8 9 10 9 9 11 8 7 6 4 4 6 7 8 7 6
12 11 12 12 13 13 13 12 11 10 10 10 10 11 11 10 11 12 11 7 7 9 10 10 10 9 10 10 8 7 7 7 11 13 11 10 9 8 6 5 7 9 7
13 12 12 12 13 14 13 12 10 9 10 10 10 10 10 9 10 11 11 7 7 8 7 8 11 12 12 13 8 7 7 6 6 8 9 9 8 8 11 8 8 9 8
13 13 13 12 12 13 11 9 9 9 10 9 10 9 9 9 9 11 12 8 7 7 6 6 7 13 14 15 11 7 7 5 4 4 6 6 6 6 8 9 8 8 9
13 13 13 13 13 12 10 10 9 9 9 8 8 8 6 6 7 9 13 12 9 6 5 5 5 10 14 15 11 8 8 6 3 3 4 6 6 7 7 8 9 8 6
13 13 13 13 12 11 10 10 8 7 6 6 5 6 5 4 4 8 11 13 12 6 3 3 4 7 10 10 11 10 8 5 5 5 5 5 6 7 7 7 8 7 5
13 13 12 12 12 10 7 7 6 6 5 5 5 5 4 3 2 3 5 7 9 8 6 5 7 8 6 6 8 7 6 6 6 6 5 4 4 6 6 6 7 7 6
12 12 12 11 10 9 8 6 6 4 3 4 5 5 4 2 2 1 2 3 4 5 5 5 5 6 6 6 6 7 8 7 7 5 5 4 4 5 6 7 7 8 7
11 11 10 10 9 8 7 6 4 5 4 4 4 4 3 1 2 2 1 1 2 3 4 5 6 6 7 8 8 8 8 8 7 6 5 5 5 6 6 7 7 8 8
12 11 10 9 8 8 7 7 6 3 4 5 5 4 4 2 1 0 0 1 2 4 5 6 6 6 7 7 6 7 7 8 7 7 6 6 6 6 7 8 9 9 8
12 11 10 8 8 8 7 6 5 4 2 1 4 5 5 3 3 2 2 3 4 5 6 6 6 6 7 6 6 6 6 6 6 7 7 7 7 7 8 9 9 10 10
11 9 9 9 8 7 6 6 5 4 3 2 1 3 4 4 3 3 3 4 5 6 7 7 6 6 6 6 6 6 6 6 7 7 7 7 7 7 8 9 9 12 10
9 11 10 9 8 7 5 5 5 4 3 3 2 1 3 4 4 4 5 6 5 5 5 5 5 5 5 5 5 5 5 5 6 6 6 7 8 8 9 10 10 10 9
9 9 11 9 7 6 5 5 4 4 3 2 2 1 2 3 4 4 4 5 5 4 4 4 4 4 4 4 4 5 6 5 5 6 6 6 7 8 8 8 9 9 9
9 8 7 7 6 6 6 5 4 4 4 3 2 2 3 4 4 3 3 2 3 3 3 3 3 4 4 4 4 4 5 5 5 5 7 7 7 8 8 8 8 8 9
9 9 8 7 5 5 4 4 3 3 3 3 3 3 2 2 2 2 2 2 2 2 2 2 3 3 3 4 4 5 5 5 5 6 7 8 7 8 8 9 10 10 10
9 8 7 7 5 5 4 4 3 3 3 3 3 3 2 1 1 2 2 2 1 1 0 1 1 3 5 4 3 4 4 4 5 6 9 9 9 8 9 9 9 10 10
7 7 7 6 6 5 4 4 3 3 3 3 3 3 2 1 1 0 1 1 1 1 2 1 1 2 5 5 5 5 6 7 6 5 7 8 9 9 10 10 9 10 9
7 7 7 6 5 5 4 4 4 3 2 3 3 3 3 1 1 0 0 1 1 2 2 2 4 6 7 6 8 9 7 7 6 5 5 7 9 9 9 8 11 10 10
Wind_Direction
320 314 310 304 301 299 294 293 292 289 285 279 277 272 261 249 232 217 219 218 217 223 230 228 229 232 239 260 269 275 265 250 246 240 149 138 137 132 131 130 140 132 113
323 322 319 321 320 314 309 305 302 297 293 288 280 276 272 262 241 226 222 224 216 216 220 225 225 226 223 221 229 244 245 241 233 229 179 159 154 146 148 155 147 129 121
324 322 320 317 313 307 303 300 299 297 293 288 282 275 273 269 259 241 229 222 220 216 212 215 221 221 222 216 212 218 219 232 211 224 208 178 163 160 154 146 123 123 124
322 317 311 308 304 301 299 295 293 291 289 284 279 276 274 271 265 256 241 228 224 220 215 212 215 218 218 214 217 213 213 215 216 225 222 194 178 169 159 148 143 142 137
313 308 306 303 301 299 297 296 293 290 289 288 284 279 273 268 260 254 247 239 227 223 218 214 217 218 220 214 218 203 203 203 206 212 215 209 194 175 172 164 157 145 133
311 308 304 301 302 301 298 294 292 290 288 286 283 279 273 269 267 258 247 251 236 228 220 213 220 221 221 211 211 204 198 206 208 204 210 212 204 190 174 166 158 155 156
309 304 305 306 306 305 306 303 298 296 292 287 282 276 270 265 264 256 242 243 244 233 226 218 223 224 208 204 207 209 211 218 215 205 211 217 204 193 184 176 171 172 156
311 311 313 312 310 308 304 299 295 292 288 284 280 275 268 263 255 241 232 231 242 238 228 218 215 230 224 206 207 208 208 213 215 215 218 217 218 204 196 184 168 155 130
316 317 317 314 310 307 302 298 296 292 288 283 278 272 266 260 250 235 222 229 234 237 234 226 212 216 219 207 208 213 212 216 217 217 211 210 206 205 191 171 167 162 153
321 319 316 311 307 303 298 296 293 290 286 285 280 273 266 260 246 226 212 226 230 231 229 233 223 211 206 200 202 207 214 218 226 213 213 215 210 204 195 189 180 173 156
321 316 311 309 304 298 296 295 293 291 287 283 280 275 266 256 240 222 210 218 225 224 222 221 220 207 199 196 198 201 211 218 223 219 206 206 204 202 196 194 188 181 173
317 313 311 309 306 304 302 297 295 293 291 287 282 279 270 251 232 220 210 215 225 231 225 225 211 195 195 193 195 197 192 199 223 225 216 208 203 201 196 191 189 187 187
316 313 312 310 305 300 299 300 300 297 293 293 291 287 281 259 226 217 210 213 220 230 245 226 186 176 182 193 203 192 183 200 217 225 224 218 205 197 182 175 174 165 160
315 313 311 308 306 305 303 300 297 299 303 309 309 303 298 286 248 206 202 208 213 221 229 207 174 169 180 192 185 193 202 214 214 219 220 220 200 181 175 166 164 157 148
316 313 312 308 306 305 303 300 300 307 303 298 310 318 317 314 358 319 221 204 199 201 199 191 190 182 196 206 201 194 202 210 218 218 213 212 193 180 173 167 162 160 161
317 315 312 310 310 310 310 307 291 274 255 252 261 287 313 20 44 28 55 177 185 188 200 207 207 206 208 211 209 205 204 206 206 203 207 201 191 181 172 168 168 166 163
315 313 310 310 313 313 314 311 309 290 246 248 260 263 264 294 328 346 170 182 193 181 211 220 214 213 218 220 218 214 211 205 198 195 197 195 186 178 173 170 169 167 164
316 311 309 310 314 313 312 311 311 320 319 265 228 238 243 249 251 244 204 202 210 210 224 227 219 214 216 218 219 219 215 205 196 194 193 188 181 179 175 172 171 170 163
315 312 317 315 312 311 314 318 328 339 334 321 204 188 221 222 228 234 214 234 237 220 219 225 225 223 217 213 217 216 208 201 193 189 187 180 179 178 174 171 170 166 160
311 309 308 309 309 314 325 334 335 334 337 333 320 234 189 205 216 207 214 231 244 245 238 229 225 225 221 215 211 210 206 195 186 183 180 176 178 177 172 169 167 166 164
316 316 314 311 315 325 335 339 336 331 336 341 335 342 298 258 252 244 225 221 234 243 240 236 228 223 218 210 207 205 200 189 181 178 174 173 172 170 169 167 166 163 160
313 314 313 315 320 330 333 332 330 335 341 347 328 291 267 270 275 265 258 235 234 238 233 227 228 225 216 206 200 197 189 182 180 173 168 169 166 165 164 161 159 159 158
311 315 316 316 324 326 321 331 329 340 346 342 333 328 305 299 317 317 295 272 257 256 238 222 222 213 198 190 192 188 185 183 178 168 164 163 160 159 159 160 158 156 157
309 316 320 324 330 336 341 342 344 356 353 345 345 333 331 335 343 341 332 344 350 325 221 165 192 188 169 160 166 168 168 163 158 161 161 156 156 157 156 156 158 159 158
318 325 326 328 336 347 348 350 355 4 5 348 339 333 337 355 11 5 307 31 33 49 78 98 105 124 135 135 125 114 109 114 122 136 150 153 155 154 152 153 156 158 158
329 330 330 331 338 343 348 351 351 6 16 351 344 335 348 22 42 343 342 87 98 85 78 79 100 105 105 106 107 107 108 109 112 126 146 148 149 149 148 148 152 154 157